Flag for Germany Weather past 2 weeks in Amberg, Bavaria, Germany

Now
59 °F

Light rain. Fog.


Feels Like: 59 °F
Forecast: 55 / 64 °F
Wind: No wind

Location: Hohenfels

Current Time: Sep 20, 2014 at 9:59:10 AM

Latest Report: Sep 20, 2014 at 8:58 AM


Visibility: 5 mi

Pressure: 29.99 "Hg

Humidity: 100%

Dew point: 59 °F

Location of AmbergLocation

Historic Weather in Amberg — Graph

°F

Amberg temperature yesterday

Maximum temperature yesterday: 75 °F (at 3:58 PM)
Minimum temperature yesterday: 52 °F (at 5:58 AM)
Average temperature yesterday: 63 °F

Past Weeks' High & Low Weather Summary

 TemperatureHumidityPressure
High75 °F (Sep 6, 2:58 PM)100% (Sep 5, 8:00 AM)30.15 "Hg (Sep 5, 8:00 AM)
Low46 °F (Sep 17, 6:58 AM)50% (Sep 9, 4:58 PM)29.88 "Hg (Sep 6, 4:58 PM)
Average60 °F88%30.00 "Hg
* Reported Sep 5 8:00 AM — Sep 20 8:58 AM, Amberg, Weather by CustomWeather, © 2014

Note: Actual official high and low records may vary slightly from our data, if they occured in-between our weather recording intervals... More about our weather records

Advertising

Amberg weather history for previous 24 hours

 ConditionsComfort  
Time TempWeatherWind HumidityBarometerVisibility
8:58 AM
Sep 20
59 °FLight rain. Fog.No wind100%29.99 "Hg5 mi
7:58 AM57 °FOvercast.No wind100%29.99 "HgN/A
6:58 AM57 °FOvercast.No wind100%29.98 "HgN/A
5:58 AM57 °FFog.No wind100%29.98 "Hg4 mi
4:58 AM57 °FOvercast.No wind100%29.98 "HgN/A
4:00 AM57 °FFog.1 mph100%30.02 "Hg1 mi
3:58 AM57 °FFog.2 mph100%29.98 "Hg1 mi
3:04 AM57 °FFog.No wind100%30.02 "Hg2 mi
2:58 AM57 °FPassing clouds.No wind100%29.98 "HgN/A
1:58 AM59 °FOvercast.No wind100%29.98 "HgN/A
12:58 AM59 °FOvercast.No wind100%29.98 "HgN/A
11:58 PM
Sep 19
59 °FOvercast.No wind100%29.99 "HgN/A
10:58 PM59 °FOvercast.No wind100%30.00 "HgN/A
9:58 PM61 °FOvercast.No wind94%29.98 "HgN/A
8:59 PM61 °FPassing clouds.No wind94%29.98 "HgN/A
8:58 PM61 °FPassing clouds.1 mph94%29.96 "HgN/A
8:02 PM64 °FStrong thunderstorms. Broken clouds.7 mph83%30.00 "Hg1 mi
6:58 PM66 °FSunny.5 mph83%29.96 "Hg1 mi
5:58 PM73 °FSunny.2 mph61%29.93 "Hg1 mi
4:58 PM75 °FSunny.6 mph57%29.94 "HgN/A
3:58 PM75 °FSunny.5 mph57%29.93 "Hg3 mi
2:58 PM73 °FScattered clouds.2 mph61%29.95 "HgN/A
1:58 PM73 °FScattered clouds.6 mph61%29.94 "HgN/A
12:58 PM72 °FPassing clouds.3 mph65%29.96 "HgN/A
11:58 AM70 °FPassing clouds.3 mph69%29.96 "HgN/A
10:58 AM66 °FScattered clouds.6 mph78%29.98 "HgN/A
9:58 AM63 °FPartly sunny.5 mph83%29.99 "HgN/A
Weather by CustomWeather, © 2014

See weather overviewHow to use our weather pages